{"data":{"norad_id":54235,"intl_designator":"2022-151A","name":"YUNHAI-3 01","alt_names":[],"object_type":"PAYLOAD","status":"ACTIVE","operator":null,"country":"PRC","launch_date":"2022-11-11","launch_site_code":"TAISC","launch_vehicle":null,"mission":null,"orbit_class":"UNKNOWN","rcs_meters":null,"size_class":null,"mass_kg":null,"dimensions":null,"purposes":[],"wikipedia_slug":null,"has_3d_model":false,"image_url":null,"decayed_at":null,"tle_current":{"epoch":"2026-09-21T23:36:32.107680Z","epoch_age_seconds":34142,"freshness":"FRESH","line1":"1 54235U 22151A   26264.98370495 -.00000011  00000+0  17378-4 0  9997","line2":"2 54235  98.8217 271.0298 0001311 143.8904 216.2357 14.13373626198617","mean_motion":14.13373626,"eccentricity":0.0001311,"inclination_deg":98.8217,"raan_deg":271.0298,"arg_perigee_deg":143.8904,"mean_anomaly_deg":216.2357,"bstar":1.7378e-5,"rev_number":19861,"period_min":101.88388784892,"perigee_km":846.90284099669,"apogee_km":848.79749483211,"semimajor_km":7225.9871679144,"source":"CELESTRAK","updated_at":"2026-09-22T09:00:25.142010Z"}}}